Regional Weather Roundup
Issued by NWS

Home | Current Version | Previous Version | Graphics & Text | Print | Product List | Glossary On
Versions: 1 2 3 4 5 6 7 8 9 10 11 12 13 14 15 16 17 18 19 20 21 22 23 24 25 26 27 28 29 30 31 32 33 34 35 36 37 38 39 40 41 42 43 44 45 46 47 48 49 50
000
ASUS43 KOAX 182302
RWRNE

WEATHER ROUNDUP FOR NEBRASKA
NATIONAL WEATHER SERVICE OMAHA NE
500 PM CST SAT NOV 18 2017

NOTES: SATELLITE DATA IS BEING USED TO AUGMENT CLOUD COVER ABOVE
       12000 FEET.
       "FAIR" INDICATES FEW OR NO CLOUDS BELOW 12,000 FEET WITH NO
       SIGNIFICANT WEATHER AND/OR OBSTRUCTIONS TO VISIBILITY.


NEZ001>004-019>022-054>056-190000-
NEBRASKA PANHANDLE

CITY           SKY/WX    TMP DP  RH WIND       PRES   REMARKS
SCOTTSBLUFF    CLEAR     42  14  32 W12       30.18R
ALLIANCE       CLEAR     41  14  33 NW13      30.16R
CHADRON        CLEAR     43  16  33 W12       30.17R
GORDON         FAIR      42  16  34 NW13      30.14R
KIMBALL        CLEAR     39  12  32 NW21G30   30.19R WCI  29
SIDNEY         CLEAR     40  15  36 NW20      30.18S WCI  30
$$

NEZ057>060-069>072-079>082-190000-
SOUTHWEST NEBRASKA

CITY           SKY/WX    TMP DP  RH WIND       PRES   REMARKS
NORTH PLATTE   CLEAR     45  19  35 NW15G24   30.17R
IMPERIAL       CLEAR     45  14  28 NW15      30.20R
LEXINGTON      CLEAR     45  22  40 NW13      30.17R
MCCOOK         CLEAR     46  20  35 NW15      30.19R
OGALLALA       CLEAR     45  16  30 NW10      30.18R
$$

NEZ005>010-023>029-035>040-094-190000-
NORTH CENTRAL NEBRASKA

CITY           SKY/WX    TMP DP  RH WIND       PRES   REMARKS
VALENTINE      MOCLDY    44  22  41 N10       30.12R
AINSWORTH      CLEAR     41  23  48 NW14G22   30.12R
BROKEN BOW     CLEAR     44  22  41 NW12      30.14R
O`NEILL        CLEAR     37  26  62 NW9       30.13R WCI  31
ORD            CLEAR     42  25  50 NW13G23   30.13R
THEDFORD       CLEAR     44  20  38 NW9       30.15R
$$

NEZ041-046>049-061>064-073>077-083>087-190000-
SOUTH CENTRAL NEBRASKA

CITY           SKY/WX    TMP DP  RH WIND       PRES   REMARKS
GRAND ISLAND   CLEAR     44  27  51 NW13      30.14R
AURORA         CLEAR     43  27  52 NW17      30.13R
HASTINGS       CLEAR     44  23  43 NW14      30.15R
HEBRON         CLEAR     47  26  43 NW14G20   30.14R
HOLDREGE       CLEAR     44  26  48 NW9       30.16R
KEARNEY        CLEAR     44  24  45 N10       30.16R
YORK           CLEAR     43  28  56 NW14G21   30.12R
$$

NEZ011>018-030>034-042>045-190000-
NORTHEAST NEBRASKA

CITY           SKY/WX    TMP DP  RH WIND       PRES   REMARKS
NORFOLK        CLEAR     38  24  57 NW15      30.09R WCI  29
ALBION         CLEAR     41  27  58 NW12      30.12R
BLAIR          CLEAR     40  28  62 NW17      30.08R WCI  31
COLUMBUS       CLEAR     40  26  57 NW16      30.13R WCI  31
FREMONT        CLEAR     40  26  58 NW15G22   30.11R WCI  31
TEKAMAH        CLEAR     38  23  55 NW15      30.10R WCI  29
WAYNE          PTCLDY    35  21  55 NW9       30.11R WCI  28
$$

NEZ050>053-065>068-078-088>093-190000-
SOUTHEAST NEBRASKA

CITY           SKY/WX    TMP DP  RH WIND       PRES   REMARKS
LINCOLN        CLEAR     45  26  47 NW20G25   30.13R
OMAHA EPPLEY   CLEAR     40  25  55 NW15      30.09R WCI  32
BEATRICE       CLEAR     46  27  47 NW16G25   30.11R
FALLS CITY     CLEAR     46  27  47 NW13G23   30.06R
NEBRASKA CITY  CLEAR     44  28  54 N18G26    30.08R
PLATTSMOUTH    CLEAR     42  28  57 NW14G25   30.08R
$$

NEZ044-045-051>053-067-190000-
OMAHA AREA

CITY           SKY/WX    TMP DP  RH WIND       PRES   REMARKS
OMAHA EPPLEY   CLEAR     40  25  55 NW15      30.09R WCI  32
BLAIR          CLEAR     40  28  62 NW17      30.08R WCI  31
FREMONT        CLEAR     40  26  58 NW15G22   30.11R WCI  31
MILLARD        CLEAR     44  27  52 NW15G21   30.10R
OFFUTT AFB     CLEAR     42  24  50 NW14G28   30.08R
PLATTSMOUTH    CLEAR     42  28  57 NW14G25   30.08R
WAHOO          FAIR      42  26  52 NW16      30.10R
$$




USA.gov is the U.S. government's official web portal to all federal, state and local government web resources and services.